Location: Alpine
(43.1636°N, 111.0180°W)
Time: 04:54:45
(UTC+00:00)

Tiros 1 despin weight - Pass Details

Date: 03 June 2022
Orbit: 591 x 639 km, 48.2° (Epoch: 30 June)

Event Time Altitude Azimuth Distance (km) Brightness Sun altitude
Rises 03:26:36 0° 294° (WNW) 2,868 ? -5.1°
Reaches altitude 10° 03:28:56 10° 295° (WNW) 1,954 ? -5.4°
Maximum altitude 03:33:25 87° 22° (NNE) 605 ? -6.1°
Drops below altitude 10° 03:37:50 10° 114° (ESE) 1,923 ? -6.7°
Enters shadow 03:38:19 - 115° (ESE) 2,111 ? -6.8°
Sets 03:40:06 0° 115° (ESE) 2,818 - -7.0°
